Location: Coleto Creek Park and Reservoir
(28.7196°N, 97.1740°W)
Time: 15:11:17
(UTC-06:00)

HST - Visible Passes

Search period start: 22 November 2014 00:00
Search period end: 02 December 2014 00:00
Orbit: 545 x 550 km, 28.5° (Epoch: 21 November)

Date Brightness Start Highest point End Pass type
(mag) Time Alt. Az. Time Alt. Az. Time Alt. Az.
22 Nov 1.5 05:13:12 42° SSW 05:13:56 47° SSE 05:17:57 10° E visible
23 Nov 1.2 05:06:26 57° SSE 05:06:26 57° SSE 05:10:31 10° E visible
24 Nov 1.4 04:59:35 55° ESE 04:59:35 55° ESE 05:03:04 10° E visible
25 Nov 1.9 04:52:39 44° E 04:52:39 44° E 04:55:35 10° E visible
25 Nov 0.8 06:28:38 10° W 06:32:49 85° S 06:37:00 10° E visible
26 Nov 2.4 04:45:40 34° E 04:45:40 34° E 04:48:05 10° E visible
26 Nov 0.9 06:21:12 10° W 06:25:19 78° S 06:29:30 10° ESE visible
27 Nov 2.8 04:38:39 27° E 04:38:39 27° E 04:40:35 10° E visible
27 Nov 0.9 06:14:11 13° W 06:17:48 70° S 06:21:58 10° ESE visible
28 Nov 3.2 04:31:36 21° E 04:31:36 21° E 04:33:05 10° E visible
28 Nov 1.1 06:07:08 17° W 06:10:16 60° SSW 06:14:23 10° ESE visible
29 Nov 3.6 04:24:32 17° E 04:24:32 17° E 04:25:34 10° E visible
29 Nov 1.3 06:00:04 20° W 06:02:42 50° SSW 06:06:45 10° ESE visible
30 Nov 3.9 04:17:28 14° E 04:17:28 14° E 04:18:02 10° E visible
30 Nov 1.6 05:53:00 23° WSW 05:55:07 40° SSW 05:59:03 10° SE visible
01 Dec 4.1 04:10:24 10° ESE 04:10:24 10° ESE 04:10:28 10° ESE visible
01 Dec 1.9 05:45:56 24° WSW 05:47:31 32° SSW 05:51:15 10° SE visible
